Location: Castle Hill Houses
(40.8186°N, 73.8497°W)
Time: 22:27:31
(UTC+00:00)

Cosmos 1328 - Pass Details

Date: 26 January 2020
Orbit: 535 x 549 km, 82.5° (Epoch: 17 February)

Event Time Altitude Azimuth Distance (km) Brightness Sun altitude
Exits shadow 10:02:20 34° 19° (NNE) 895 4.9 -24.4°
Maximum altitude 10:03:46 56° 80° (E) 643 4.4 -24.1°
Drops below altitude 10° 10:07:38 10° 160° (SSE) 1,788 6.7 -23.4°
Sets 10:09:48 0° 164° (SSE) 2,673 7.6 -23.0°
